Regional Weather Roundup
Issued by NWS Midland/Odessa, TX

Skip options and go directly to product.
Home | Oldest Version | Previous Version | Current Version | All | Text Only | Save Text | Print | Product List | Glossary On

Skip product version selection by date and time.   
043
ASUS44 KMAF 231310
RWRMAF
MIDLAND AREA WEATHER ROUNDUP
NATIONAL WEATHER SERVICE MIDLAND TX
800 AM CDT SAT MAY 23 2015

...IN SOUTHWEST TEXAS AND SOUTHEAST NEW MEXICO...

CITY           SKY/WX    TMP DP  RH WIND       PRES   REMARKS
ALPINE         MOSUNNY   71  47  43 SW18G29   30.11S
ANDREWS        FAIR      66  66 100 SE12G20   29.98S
ARTESIA        CLOUDY    63  63 100 S6        29.96S FOG
BIG SPRING     CLOUDY    74  68  80 SE18G24   30.01S
CARLSBAD       MOSUNNY   63  61  93 S5        29.94R FOG
DRYDEN           N/A     72  69  90 SE10      30.00R
FORT STOCKTON  CLOUDY    72  55  55 S22G30    29.95R
GUAD PASS      SUNNY     59  48  67 W12       30.06S
HOBBS          CLOUDY    63  63 100 CALM      29.99R FOG
MARFA          PTSUNNY   66  54  63 S18G24    30.11R
MIDLAND AIRPK  CLOUDY    70  65  84 S14G21    29.99S
MIDLAND INTL   CLOUDY    68  64  87 SE18G26   29.98R
ODESSA         CLOUDY    68  62  81 S20G26    29.99R
PECOS          PTSUNNY   62  61  96 CALM      29.93R FOG
PRESIDIO       PTSUNNY   77  47  35 SE13G18   30.00S
SEMINOLE       MOSUNNY   65  65 100 SE13      29.99R FOG
SNYDER         CLOUDY    70  67  92 SE13      30.01S
WINK           MOSUNNY   68  60  75 SE9       29.93R
$$
...OTHER STATIONS IN TEXAS...

CITY           SKY/WX    TMP DP  RH WIND       PRES   REMARKS
ABILENE        CLOUDY    73  68  84 SE16G25   30.00F
AMARILLO       LGT RAIN  53  52  96 NE13      30.04F FOG
AUSTIN         CLOUDY    74  73  97 SE9       30.09R
BROWNSVILLE    PTSUNNY   80  76  87 SE9       30.04S
CORPUS CHRISTI CLOUDY    79  75  87 SE10      30.05R
DALLAS FTW     LGT RAIN  68  68 100 SE13      30.10R FOG
DEL RIO        LGT RAIN  75  72  90 SE12      30.02R
EL PASO        PTSUNNY   67  27  22 S6        30.00R
HOUSTON INT    CLOUDY    75  74  96 SE6       30.13R FOG
LUBBOCK        CLOUDY    67  65  93 S18       29.99R FOG
SAN ANGELO     CLOUDY    72  63  73 S9        30.01R
SAN ANTONIO    CLOUDY    76  73  91 SE9       30.10R FOG
WACO           CLOUDY    72  70  93 SE10      30.10R FOG
WICHITA FALLS  NOT AVBL
$$
...OTHER LOCATIONS IN NEW MEXICO...

CITY           SKY/WX    TMP DP  RH WIND       PRES   REMARKS
ALAMAGORDO     PTSUNNY   61  30  31 S5        30.01R
ALBUQUERQUE    MOSUNNY   55  29  36 N6        30.03R
CANNON AFB     MOSUNNY   63  63 100 S8        29.99R
CLOVIS         CLOUDY    63  61  94 S8        30.00R
HOLLOMAN AFB   PTSUNNY   61  37  40 S7        29.99R
ROSWELL        CLOUDY    64  61  90 SW9       29.95R FOG
RUIDOSO        SUNNY     50  28  43 SE7       30.10R
SANTA FE       SUNNY     46  42  86 CALM      30.03R
TRUTH OR CONSE MOCLDY    59  24  26 CALM      30.01R
TUCUMCARI      CLOUDY    55  52  89 NE6       29.98R
$$

USA.gov is the U.S. government's official web portal to all federal, state and local government web resources and services.